Location: D�derode
(51.8092°N, 10.1065°E)
Time: 06:28:15
(UTC+00:00)

Cosmos 1538 Rocket - Pass Details

Date: 01 December 2020
Orbit: 753 x 791 km, 74.0° (Epoch: 23 January)

Event Time Altitude Azimuth Distance (km) Brightness Sun altitude
Rises 17:53:42 0° 215° (SW) 3,275 7.8 -23.9°
Reaches altitude 10° 17:56:07 10° 219° (SW) 2,353 7.1 -24.3°
Maximum altitude 18:01:25 60° 299° (WNW) 904 4.5 -25.1°
Enters shadow 18:03:58 30° 8° (N) 1,383 5.2 -25.5°
